Location: Beauchamp
(49.0167°N, 2.2000°E)
Time: 01:39:11
(UTC+00:00)

Daily predictions for brighter satellites

Satellite Brightness Start Highest point End
(mag) Time Altitude Azimuth Time Altitude Azimuth Time Altitude Azimuth
Cosmos 2219 Rocket 4.1 03:41:53 23° NNE 03:41:53 23° NNE 03:43:52 10° NNE
Cosmos 2237 Rocket 3.6 03:43:06 34° E 03:43:06 34° E 03:47:38 10° NE
BREEZE-M DEB (TANK) 4.2 03:55:50 82° SSW 03:55:51 82° SSW 04:00:44 10° ESE
Cosmos 2333 Rocket 3.8 04:04:35 26° NNE 04:04:35 26° NNE 04:07:05 10° NNE
Lacrosse 4 Rocket 3.8 04:04:26 21° E 04:04:26 21° E 04:07:22 10° ENE
FENGYUN 3A 4.5 04:00:35 10° NNE 04:04:53 48° ENE 04:04:53 48° ENE
Cosmos 2360 Rocket 4.2 04:15:25 17° N 04:15:25 17° N 04:16:59 10° NNE
Cosmos 1464 Rocket 4.2 04:13:47 43° SSE 04:15:45 65° E 04:21:52 10° NNE
SL-16 R/B 4.5 04:18:48 12° N 04:18:48 12° N 04:19:37 10° N
Cosmos 841 Rocket 4.2 04:16:53 50° ENE 04:16:53 50° ENE 04:21:10 10° NNE
Cosmos 1980 4.0 04:17:06 63° E 04:17:06 63° E 04:22:21 10° NNE
Cosmos 2322 Rocket 4.4 04:20:13 13° N 04:20:13 13° N 04:21:09 10° N
COSMOS 2428 3.8 04:25:09 34° N 04:25:09 34° N 04:28:30 10° NNE
Cosmos 1072 Rocket 4.5 04:22:08 58° SSE 04:23:26 80° E 04:29:49 10° NNE
Atlas Centaur 2 4.5 04:26:51 17° S 04:27:28 17° S 04:32:04 10° SE
ATLAS CENTAUR R/B 3.2 04:31:44 26° E 04:31:44 26° E 04:33:55 10° ENE
METEOR-M 4.3 04:27:44 10° NNE 04:33:07 70° ESE 04:34:34 48° S
Cosmos 2084 Rocket 4.4 04:37:18 46° ESE 04:37:18 46° ESE 04:40:33 10° SE
Cosmos 372 Rocket 4.4 04:40:33 53° S 04:40:33 53° S 04:44:32 10° SSE
ALOS 3.8 04:35:48 10° NNE 04:37:53 26° N 04:37:53 26° N
Cosmos 1602 Rocket 4.3 04:40:25 37° NNE 04:41:48 53° ENE 04:46:10 10° SSE
USA 215 3.4 04:36:01 10° ENE 04:42:21 55° NNW 04:43:15 51° NW
ADEOS 3.7 04:38:16 10° NNE 04:43:31 70° ESE 04:47:41 16° S
USA 307 3.9 04:44:43 42° SE 04:44:43 42° SE 04:48:33 10° ENE
GEOS 3 Rocket 4.5 04:39:36 10° ESE 04:44:44 47° NE 04:46:53 31° NNW
NOSS 0 Rocket 3.8 04:45:40 69° W 04:46:06 72° WNW 04:52:18 10° NNE
Nadezhda 4 Rocket 3.8 04:41:50 10° N 04:47:59 89° W 04:54:07 10° S
CZ-2C R/B 4.4 04:43:18 10° N 04:44:43 18° N 04:44:43 18° N
USA 305 3.6 04:50:49 48° SE 04:50:49 48° SE 04:54:54 10° ENE
USA 308 3.6 04:53:18 48° SSE 04:53:30 48° SE 04:57:38 10° ENE
Cosmos 1400 Rocket 3.3 04:53:19 38° SSE 04:54:39 60° E 04:58:45 10° NNE
Cosmos 1943 Rocket 3.0 04:51:10 20° NNW 04:54:56 50° NE 05:00:27 10° SE
SL-4 R/B 2.6 04:55:30 50° ESE 04:55:30 50° ESE 04:58:54 10° ENE
Cosmos 2034 Rocket 3.9 04:50:57 10° S 04:57:19 89° W 05:03:43 10° N
Meteor 1-16 Rocket 4.4 04:52:21 10° S 04:58:16 81° E 05:04:13 10° NNE
Cosmos 1570 Rocket 3.8 04:57:36 61° SW 04:58:32 81° WNW 05:03:50 10° NNE
Cosmos 540 Rocket 3.5 05:01:40 59° NW 05:01:40 59° NW 05:06:26 10° NNE
SJ-12 4.1 04:57:37 10° NNE 05:01:47 73° ESE 05:04:12 24° S
CZ-2C R/B 4.5 04:58:04 10° ESE 05:02:32 29° ENE 05:07:07 10° N
Cosmos 2298 Rocket 4.0 05:00:29 36° NNW 05:02:46 89° ENE 05:08:06 10° SSE
USA 306 3.3 05:02:36 53° S 05:03:02 57° SE 05:07:12 10° ENE
NOSS 3-2 (A) 3.9 05:00:28 16° SSW 05:05:00 59° ESE 05:11:23 10° NE
Cosmos 1814 Rocket 3.8 05:03:50 49° SW 05:05:13 79° WNW 05:10:23 10° NNE
Cosmos 2369 Rocket 3.4 05:00:31 12° NNW 05:05:14 38° NE 05:10:26 10° ESE
Cosmos 1125 Rocket 3.8 05:01:51 20° NNW 05:05:31 67° ENE 05:10:49 10° SSE
Cosmos 1461 4.3 05:11:24 29° NNW 05:11:24 29° NNW 05:14:48 10° NNE
CZ-4B R/B 3.3 05:07:14 10° NNE 05:10:51 56° ESE 05:14:34 10° S
COSMO-SKYMED 1 2.4 05:07:57 10° S 05:12:16 69° WSW 05:12:34 67° WNW
CZ-4B R/B 4.0 05:08:14 10° N 05:12:43 70° WNW 05:13:34 54° SW
PSLV R/B 4.2 05:10:15 10° SSE 05:14:22 70° ENE 05:17:58 14° N
Cosmos 2278 Rocket 4.1 05:18:36 14° SSW 05:18:36 14° SSW 05:19:39 10° SSW
Cosmos 2228 4.4 05:13:55 10° SSE 05:17:51 38° E 05:21:48 10° NNE
SL-16 R/B 2.5 05:12:42 10° SSW 05:18:18 68° ESE 05:23:57 10° NNE
NOSS 3-2 (C) 4.4 05:13:24 10° S 05:18:44 45° ESE 05:24:49 10° NE
CZ-2C R/B 3.8 05:19:17 11° SSW 05:19:38 11° S 05:20:42 10° S
Cosmos 972 Rocket 4.4 05:16:37 10° SSW 05:22:51 78° ESE 05:28:25 10° NNE
Cosmos 2219 Rocket 3.5 05:23:36 22° NNW 05:23:36 22° NNW 05:27:16 10° N
Cosmos 2026 Rocket 4.1 05:17:18 10° N 05:23:43 84° E 05:30:07 10° S
ATLAS 5 CENTAUR R/B 3.8 05:25:47 15° SSW 05:25:47 15° SSW 05:27:29 10° S
ERS-2 1.9 05:21:19 10° S 05:24:57 70° WSW 05:25:10 67° WNW
CENTAUR R/B 3.2 05:20:11 10° SSW 05:25:55 55° ESE 05:32:45 10° NE
Cosmos 2237 Rocket 2.5 05:24:59 38° W 05:26:28 46° NW 05:31:59 10° NNE
Cosmos 2208 Rocket 4.0 05:23:26 25° SW 05:26:33 61° WNW 05:31:54 10° NNE
H-2A R/B 2.9 05:24:07 10° NNE 05:27:51 70° ESE 05:31:36 10° S
Cosmos 1953 4.4 05:32:23 14° NNW 05:32:23 14° NNW 05:33:09 10° N
Meteor PRIRODA 3.4 05:28:53 10° NNE 05:32:32 85° WNW 05:36:10 10° SSW
Cosmos 1606 Rocket 4.4 05:30:05 10° S 05:34:15 51° E 05:38:28 10° NNE
Cosmos 1626 Rocket 4.5 05:37:41 30° WSW 05:37:41 30° WSW 05:40:39 10° SSW
FALCON 9 DEB 4.3 05:38:25 20° SSW 05:40:01 35° SE 05:42:55 10° ENE
Lacrosse 4 Rocket 1.6 05:40:48 33° WSW 05:42:23 52° NW 05:46:42 10° NNE
Meteor 1-11 4.1 05:39:00 10° NNW 05:44:32 66° W 05:50:04 10° S
Cosmos 1300 2.6 05:42:20 10° S 05:46:08 88° E 05:49:59 10° N
Cosmos 2333 Rocket 3.8 05:46:36 16° NW 05:46:58 16° NNW 05:50:29 10° N
SAR-Lupe-4 3.7 05:45:07 10° S 05:48:35 48° W 05:50:19 26° NW
deb Chang Zheng 4 3.6 05:46:09 10° N 05:50:16 50° WNW 05:54:21 10° SW
Cosmos 1315 Rocket 2.8 05:46:47 10° S 05:50:41 84° E 05:54:37 10° NNE
Meteor 1-31 Rocket 4.0 05:50:18 10° N 05:52:39 23° NW 05:52:39 23° NW
Cosmos 2297 4.0 05:50:12 18° NW 05:54:09 45° WSW 05:59:34 10° S
Cosmos 1346 Rocket 3.0 05:54:23 14° NNW 05:57:38 45° W 06:01:26 10° S
MOS 1 Rocket 3.8 05:53:35 10° SSW 05:58:01 36° W 06:02:14 10° NNW
Cosmos 841 Rocket 4.5 05:57:01 23° WNW 05:58:20 26° NW 06:02:39 10° N
USA 238 DEB 3.6 05:54:04 10° SW 06:00:41 81° NW 06:07:40 10° NE
USA 238 3.6 05:54:10 10° SW 06:00:46 82° NW 06:07:46 10° NE
Cosmos 836 Rocket 4.4 05:55:42 10° SSW 06:00:57 86° WNW 06:06:14 10° NNE
Cosmos 1758 Rocket 3.9 05:58:13 10° NNW 06:02:30 43° W 06:06:42 10° SSW
FALCON 9 DEB 3.8 06:01:26 27° NW 06:02:49 41° N 06:06:05 10° ENE
Cosmos 1689 Rocket 3.0 06:04:49 10° SSW 06:07:19 26° W 06:07:23 26° W
COSMOS 2428 4.3 06:07:11 14° NW 06:08:31 15° NNW 06:11:51 10° N
Cosmos 1441 Rocket 4.2 06:05:18 10° N 06:09:09 49° ENE 06:12:57 10° SSE
ATLAS CENTAUR R/B 1.9 06:07:56 22° W 06:09:29 31° NW 06:12:49 10° NNE
BREEZE M DEB (TANK) 3.0 06:11:54 10° SW 06:14:09 44° SSE 06:18:51 10° ENE
SL-19 R/B 4.4 06:10:30 10° NNE 06:14:16 68° ESE 06:17:31 10° S
ALOS 4.1 06:15:07 10° NNW 06:16:24 12° NW 06:16:24 12° NW
YAOGAN 6 2.9 06:14:32 10° N 06:18:06 45° WNW 06:21:38 10° SW
Cosmos 1892 2.7 06:14:15 10° N 06:18:07 89° W 06:21:59 10° S
Cosmos 1726 Rocket 3.4 06:14:12 10° SSW 06:18:29 72° WNW 06:22:50 10° N
Cosmos 1184 Rocket 4.3 06:15:30 10° N 06:18:34 37° ENE 06:21:38 10° SE
Spot 2 3.9 06:14:50 10° NNE 06:18:54 90° NNW 06:23:02 10° SSW
Cosmos 2058 Rocket 3.3 06:16:06 10° S 06:20:30 77° E 06:24:59 10° NNE
Cosmos 1603 4.4 06:16:01 10° S 06:21:30 59° ESE 06:27:03 10° NE
FALCON 9 DEB 2.9 06:19:09 10° WSW 06:22:12 77° SSE 06:25:17 10° ENE
GEOS 3 Rocket 4.1 06:17:35 10° SSE 06:22:45 47° WSW 06:27:58 10° NW
USA 307 3.0 06:20:52 13° W 06:24:30 60° NNW 06:28:42 10° ENE
USA 215 3.9 06:18:39 10° ENE 06:24:46 45° N 06:30:36 11° WNW
CZ-4B DEB 4.2 06:22:40 10° NNE 06:28:15 74° WNW 06:33:46 10° SSW
In-Cosmos 22 Rocket 4.1 06:23:04 10° NNW 06:28:30 65° W 06:33:46 10° S
PSLV R/B 4.1 06:25:05 10° N 06:28:57 47° WNW 06:32:51 10° SW
Cosmos 2292 Rocket 3.0 06:27:23 10° NNW 06:30:17 46° W 06:33:36 10° S
Cosmos 2279 Rocket 4.0 06:24:26 10° SSW 06:30:38 63° WNW 06:36:52 10° N
USA 305 3.1 06:26:57 12° W 06:30:47 56° NNW 06:34:58 10° ENE
FALCON 9 DEB 2.9 06:27:49 10° WSW 06:30:58 81° SSE 06:34:06 10° ENE
Cosmos 1400 Rocket 4.5 06:29:05 10° W 06:31:33 16° WNW 06:34:05 10° NNW
Cosmos 1408 2.5 06:28:14 10° N 06:31:51 86° W 06:35:28 10° S
USA 308 3.1 06:29:28 11° W 06:33:32 56° NNW 06:37:45 10° ENE
Cosmos 2098 Rocket 4.2 06:29:06 10° NNW 06:34:03 31° W 06:38:07 10° SW
Okean O Rocket 1.8 06:29:52 10° NNE 06:34:15 77° ESE 06:38:35 10° S
SL-4 R/B 2.0 06:31:05 12° W 06:34:37 63° N 06:38:47 10° ENE
Cosmos 1825 Rocket 4.5 06:31:08 10° NNW 06:34:58 29° W 06:38:48 10° SSW
SMAP 3.0 06:31:39 10° N 06:36:20 76° WNW 06:40:59 10° SSW
Cosmos 2263 4.2 06:32:15 10° NNW 06:37:53 69° WSW 06:43:32 10° SSE
Cosmos 1943 Rocket 3.0 06:33:32 10° NW 06:38:28 31° WSW 06:43:23 10° SSW
H-2A R/B 2.6 06:36:02 10° N 06:40:32 68° WNW 06:45:00 10° SSW
Iridium 4 Rocket 4.3 06:35:30 10° S 06:41:18 69° E 06:47:11 10° N
CZ-2C R/B 2.9 06:37:29 10° S 06:42:34 49° W 06:47:50 10° NNW
USA 306 3.2 06:38:58 10° W 06:43:06 51° NNW 06:47:16 10° ENE
Cosmos 1939 Rocket 3.3 06:39:18 10° NNE 06:43:13 66° ESE 06:47:03 10° S
Envisat 3.5 06:40:13 10° N 06:44:52 37° WNW 06:49:30 10° SW
CZ-4B R/B 4.4 06:43:36 10° NNW 06:45:35 14° WNW 06:47:37 10° W
Cosmos 2369 Rocket 2.6 06:44:05 10° NW 06:49:20 42° WSW 06:54:33 10° S
Cosmos 773 Rocket 4.1 06:44:17 10° SSW 06:49:31 86° ESE 06:54:45 10° NNE
Cosmos 1076 Rocket 3.9 06:45:38 10° N 06:49:54 69° ENE 06:54:07 10° SSE
Meteor 2-10 Rocket 3.8 06:49:05 10° SSW 06:54:52 69° WNW 07:00:37 10° N
Cosmos 2228 4.1 06:52:09 10° WSW 06:55:32 23° WNW 06:58:57 10° NNW
NOSS 3-2 (A) 4.0 06:50:33 10° WSW 06:56:09 41° NNW 07:02:38 10° NE
